Location: De Hem
(53.1353°N, 5.6896°E)
Time: 07:22:50
(UTC+00:00)

Daily predictions for brighter satellites

Satellite Brightness Start Highest point End
(mag) Time Altitude Azimuth Time Altitude Azimuth Time Altitude Azimuth
Cosmos 1269 Rocket 4.3 15:54:11 10° S 15:59:18 52° ESE 16:04:28 10° NNE
Cosmos 1689 Rocket 2.7 15:57:38 10° NNE 16:00:32 38° E 16:03:24 10° S
COSMOS 2455 3.2 15:56:33 10° SW 16:02:33 65° NW 16:08:34 10° NE
Helios 1A Rocket 2.9 15:59:18 10° SSE 16:03:24 77° ENE 16:07:31 10° NNW
Cosmos 1869 Rocket 3.6 16:00:11 10° NNW 16:04:38 89° WSW 16:09:05 10° S
Cosmos 1400 Rocket 3.0 16:02:15 10° SSW 16:06:21 78° WNW 16:10:25 10° N
Cosmos 2333 Rocket 2.9 16:01:33 10° S 16:06:50 39° ESE 16:12:09 10° NE
Cosmos 1048 Rocket 4.3 16:02:09 10° SSW 16:07:31 76° WNW 16:12:57 10° NNE
Cosmos 1484 Rocket 4.0 16:04:03 10° S 16:07:56 48° W 16:11:51 10° NNW
SeaSat 1 4.2 16:06:15 10° NE 16:08:38 14° NNE 16:11:01 10° N
Cosmos 1302 Rocket 4.1 16:03:23 10° NNW 16:08:42 90° ENE 16:13:58 10° SSE
Cosmos 2237 Rocket 3.7 16:08:01 10° SE 16:11:48 19° E 16:15:37 10° ENE
CENTAUR R/B 4.3 16:06:04 10° NW 16:13:37 49° WSW 16:21:48 10° SSE
Radarsat Rocket 4.0 16:07:41 10° SSE 16:13:49 89° NE 16:19:39 10° NNW
Tsikada Rocket 4.4 16:08:33 10° SSW 16:14:57 73° WNW 16:21:21 10° N
Cosmos 2322 Rocket 2.9 16:09:34 10° SW 16:15:02 50° NW 16:20:34 10° NNE
Meteor 1-11 Rocket 4.0 16:13:03 10° N 16:18:54 52° ENE 16:24:43 10° SSE
Cosmos 1812 3.9 16:16:30 10° SE 16:19:34 23° E 16:22:39 10° NE
Cosmos 921 Rocket 4.3 16:18:40 10° N 16:21:44 19° NE 16:24:49 10° E
USA 215 3.6 16:15:21 10° ENE 16:21:49 59° SE 16:28:16 10° SW
SL-16 R/B 3.2 16:17:14 10° WSW 16:22:37 42° NW 16:28:02 10° NNE
CORIOLIS 4.3 16:19:22 10° SE 16:24:37 51° ENE 16:29:54 10° N
Cosmos 2219 Rocket 2.5 16:20:05 10° S 16:25:29 50° ESE 16:30:56 10° NE
Cosmos 2251 Rocket 4.5 16:21:28 10° SSE 16:25:57 29° E 16:30:19 10° NE
Cosmos 1844 Rocket 4.5 16:21:15 10° NW 16:26:17 36° WSW 16:31:19 10° S
Meteor 1-27 Rocket 4.5 16:22:10 10° SSE 16:27:15 33° E 16:32:27 10° NNE
Exosat Rocket 4.4 16:23:15 10° SSE 16:27:42 29° ESE 16:31:43 11° NE
Cosmos 1340 3.6 16:26:49 10° NNW 16:30:31 51° W 16:34:11 10° S
Cosmos 1500 3.3 16:29:04 10° N 16:32:46 50° ENE 16:36:27 10° SSE
TIMED 4.5 16:30:46 10° SSW 16:35:07 74° ESE 16:39:30 10° NNE
RESURS DK-1 2.9 16:31:32 10° S 16:35:25 41° ESE 16:38:36 14° NE
Cosmos 1943 Rocket 3.4 16:32:02 10° NNW 16:36:25 22° NNE 16:39:37 14° ENE
YAOGAN 6 3.8 16:33:42 10° ESE 16:36:26 21° ENE 16:39:12 10° NNE
SL-16 R/B 4.4 16:31:59 10° N 16:36:36 23° NW 16:41:11 10° W
NOSS 2-2 (D) 4.2 16:34:01 10° WSW 16:37:43 44° NNW 16:41:39 13° NE
Cosmos 1862 Rocket 4.1 16:33:49 10° SSE 16:37:47 36° E 16:41:49 10° NNE
Okean O Rocket 2.7 16:34:22 10° S 16:38:34 49° W 16:42:49 10° NNW
IRS-1C Rocket 4.0 16:33:58 10° SSE 16:39:14 79° ENE 16:44:32 10° NNW
ISS -1.9 16:36:55 10° W 16:39:55 30° SSW 16:42:55 10° SE
NOSS 5 (C) 4.4 16:38:32 10° NW 16:41:34 56° NE 16:45:13 10° ESE
Cosmos 1900 4.2 16:36:49 10° NW 16:41:45 79° NE 16:46:38 10° SE
Envisat 3.3 16:37:52 10° SE 16:42:41 45° ENE 16:47:32 10° N
Cosmos 2297 4.1 16:38:19 10° NNW 16:43:45 41° NE 16:49:07 10° ESE
SMAP 3.0 16:39:07 10° SSE 16:43:45 76° ENE 16:48:26 10° NNW
Cosmos 2242 Rocket 4.5 16:40:49 10° SSE 16:44:45 29° E 16:48:28 11° NNE
Cosmos 1441 Rocket 4.1 16:45:35 10° N 16:48:52 26° ENE 16:52:06 10° ESE
Feng Yun 1-1 Rocket 4.2 16:44:15 10° SSE 16:49:38 87° ENE 16:55:05 10° NNW
STARLINK-67 2.7 16:46:54 10° WSW 16:49:39 68° SSE 16:51:04 25° E
CSL-04 Rocket 4.3 16:45:23 10° ESE 16:49:57 30° ENE 16:54:32 10° N
NOSS 3-1 (C) 4.4 16:43:56 10° NW 16:50:14 40° NNE 16:55:48 17° ENE
H-2A R/B 2.5 16:46:41 10° SSE 16:50:23 77° ENE 16:54:04 10° N
Cosmos 1992 Rocket 3.9 16:46:40 10° NNW 16:51:56 84° ENE 16:57:11 10° SSE
ALOS 4.2 16:48:41 10° SSW 16:52:52 32° W 16:57:04 10° NNW
Cosmos 2279 Rocket 4.5 16:46:55 10° NNW 16:53:07 66° W 16:59:19 10° S
Cosmos 1707 Rocket 3.7 16:48:57 10° SSW 16:53:26 81° WNW 16:57:57 10° N
COBE Rocket 3.9 16:49:00 10° NNE 16:53:32 50° E 16:58:05 10° S
Cosmos 1536 2.8 16:50:18 10° N 16:54:18 57° ENE 16:58:14 10° SSE
Okean-O 2.6 16:50:25 10° SSE 16:54:46 58° ENE 16:59:08 10° N
CZ-4B R/B 3.4 16:52:31 10° N 16:55:37 29° WNW 16:58:39 10° SW
Cosmos 1867 4.0 16:50:49 10° NW 16:56:01 42° NNE 16:59:53 17° E
BREEZE-M R/B 3.5 16:52:21 10° WSW 16:58:27 55° S 17:00:45 19° ESE
USA 229 DEB 4.3 16:51:53 10° NW 16:58:28 41° NNE 17:03:19 19° ENE
USA 229 4.3 16:52:00 10° NW 16:58:34 41° NNE 17:03:23 19° ENE
USA 267 4.3 16:52:32 10° SSE 16:58:48 47° SW 17:05:05 10° WNW
COSMOS 2428 2.7 16:53:37 10° SSW 16:59:17 81° ESE 17:04:21 14° NNE
Meteor 1-5 Rocket 4.4 16:54:43 10° NNW 17:00:20 74° W 17:05:43 10° S
NOSS 3-1 (A) 4.4 16:57:23 10° NW 17:03:33 38° NNE 17:08:10 20° ENE
Transit 2A Rocket 4.5 16:59:31 10° SW 17:04:02 90° E 17:06:55 21° NE
NOSS 3-4 (A) 3.6 16:57:58 10° SW 17:04:05 77° NW 17:09:09 18° NE
NOSS 3-4 (C) 3.6 16:58:05 10° SW 17:04:11 78° NW 17:09:16 18° NE
Cosmos 292 Rocket 3.7 16:59:50 10° NNW 17:04:43 66° ENE 17:09:33 10° SE
STARLINK-46 3.4 17:03:31 10° SW 17:06:01 35° SSE 17:06:36 31° SE
Lacrosse 4 Rocket 3.6 17:05:29 10° N 17:06:51 11° N 17:07:20 11° NNE
Cosmos 1908 Rocket 3.5 17:04:25 10° N 17:08:48 58° ENE 17:13:08 10° SSE
Lacrosse 5 rocket 1.8 17:05:38 10° SW 17:09:43 45° SE 17:11:25 28° E
AQUARIUS 4.5 17:06:26 10° S 17:10:55 70° WSW 17:15:26 10° NNW
Genesis I 3.1 17:07:02 10° NW 17:10:57 67° NE 17:13:36 19° ESE
COSMO-SKYMED 1 3.3 17:11:25 27° ENE 17:12:29 30° E 17:16:19 10° SSE
CZ-4 R/B 1.6 17:09:08 10° SE 17:12:47 40° ENE 17:16:26 10° N
YAOGAN 3 4.5 17:08:41 10° SSE 17:13:03 82° ENE 17:17:27 10° NNW
Aureole 1 Rocket 4.3 17:13:08 10° SSE 17:13:53 14° SE 17:13:53 14° SE
PSLV R/B 4.2 17:11:55 10° N 17:16:06 70° WNW 17:20:12 10° SSW
Cosmos 1666 2.5 17:13:34 10° N 17:17:20 66° ENE 17:21:02 10° SSE
SL-4 R/B 2.2 17:13:51 10° WSW 17:17:33 56° SSE 17:19:09 32° E
Nadezhda 4 Rocket 3.9 17:11:20 10° S 17:17:39 75° E 17:23:57 10° NNE
Cosmos 1553 Rocket 4.4 17:13:50 10° N 17:19:46 39° ENE 17:25:43 10° SE
Cosmos 2322 4.4 17:16:25 10° SW 17:21:58 50° NW 17:26:51 13° NNE
YAOGAN 1 2.8 17:19:56 10° SE 17:24:03 45° ENE 17:28:12 10° N
FengYun 1-2 T 4.1 17:18:41 10° SSE 17:24:09 72° ENE 17:29:40 10° NNW
Cosmos 2278 Rocket 3.2 17:19:50 10° NW 17:25:17 48° WSW 17:30:41 10° S
Ariane Rocket 3.8 17:26:19 28° NE 17:26:19 28° NE 17:30:18 10° N
NOAA 11 4.5 17:21:12 10° SE 17:26:20 43° ENE 17:31:30 10° N
Okean 1-7 3.4 17:28:50 10° SSE 17:32:54 41° E 17:32:59 40° E
Cosmos 2344 4.3 17:24:54 10° NW 17:33:18 55° NNE 17:40:03 25° E
Cosmos 2360 Rocket 3.6 17:28:35 10° WSW 17:33:38 32° NW 17:38:09 12° NNE
Cosmos 2369 Rocket 2.7 17:34:01 10° NNW 17:39:13 36° NE 17:39:54 35° ENE
Cosmos 2026 Rocket 4.0 17:34:05 10° SSE 17:39:56 53° E 17:45:50 10° NNE
Cosmos 1743 3.8 17:36:11 10° N 17:38:22 30° NNE 17:38:22 30° NNE
Cosmos 1980 Rocket 4.3 17:38:54 10° NW 17:41:50 14° NNW 17:44:25 11° NNE
ATLAS 2AS CENTAUR R/B 3.5 17:34:31 10° WSW 17:42:24 55° NNW 17:47:23 23° NE
SL-16 R/B 2.8 17:38:57 10° S 17:44:00 34° ESE 17:44:01 34° ESE
SeaSat 1 3.1 17:45:12 35° NE 17:45:12 35° NE 17:49:30 10° NNW
COSMOS 2455 4.3 17:44:32 10° WNW 17:49:36 27° NNW 17:52:41 18° NNE
Cosmos 2333 Rocket 3.0 17:45:26 10° SW 17:51:02 50° NW 17:54:57 20° NNE
Cosmos 1417 Rocket 4.4 17:44:59 10° N 17:51:03 57° ENE 17:57:04 10° SSE
BREEZE-M DEB (TANK) 3.6 17:48:37 10° WSW 17:52:10 26° SSW 17:52:49 24° S
Cosmos 2237 Rocket 2.1 17:49:23 10° SSW 17:55:06 88° ESE 17:57:42 34° NNE
Cosmos 1812 4.1 17:51:32 10° SW 17:55:10 38° WNW 17:58:14 14° N
Sich 1 Rocket 3.4 17:55:52 10° N 18:00:19 82° E 18:04:43 10° SSE
Cosmos 2322 Rocket 4.2 17:56:37 10° WNW 18:00:29 18° NNW 18:03:36 12° NNE
Cosmos 921 Rocket 3.1 17:56:16 10° NNW 18:00:31 74° WSW 18:04:17 13° SSE
SKYMED 2 3.4 18:00:06 61° NNE 18:00:50 82° ESE 18:05:11 10° SSW
IRS-1A Rocket 4.5 18:01:17 47° E 18:02:14 52° ENE 18:07:57 10° N
Cosmos 1782 Rocket 3.6 17:58:58 10° NNW 18:03:20 74° W 18:07:39 10° S
USA 215 3.3 18:02:28 40° ENE 18:05:02 76° NNW 18:11:34 10° W
NOSS 0 Rocket 4.1 18:00:39 10° SW 18:06:52 73° NW 18:10:05 31° NNE
Cosmos 1627 Rocket 4.3 18:00:54 10° S 18:07:02 85° E 18:13:13 10° NNE
Cosmos 2251 Rocket 4.1 18:02:44 10° SW 18:07:56 56° WNW 18:10:49 26° N
SL-16 R/B 4.3 18:04:44 10° WNW 18:08:19 17° NNW 18:11:00 13° N
Cosmos 2219 Rocket 3.3 18:04:19 10° WSW 18:09:37 40° NW 18:12:52 21° NNE
YAOGAN 6 3.9 18:06:22 10° S 18:09:44 40° W 18:13:09 10° NNW
RESURS DK-1 3.8 18:09:48 10° WSW 18:13:34 32° NW 18:14:31 29° NNW
Cosmos 614 Rocket 4.3 18:12:30 10° S 18:16:22 48° SSE 18:16:22 48° SSE
Cosmos 1703 Rocket 3.8 18:13:54 10° SSW 18:18:21 67° WNW 18:19:20 51° NNW
H-2A R/B 4.2 18:25:07 13° N 18:25:07 13° N 18:25:40 10° N
Cosmos 1943 Rocket 2.0 18:15:33 10° NNW 18:21:11 69° NE 18:21:11 69° NE
Cosmos 1092 Rocket 4.4 18:18:12 10° SSW 18:24:26 61° WNW 18:30:40 10° N
Cosmos 1980 4.1 18:20:28 10° SW 18:26:03 59° NW 18:27:59 39° N
Exosat Rocket 4.5 18:24:06 10° WSW 18:28:57 43° NW 18:30:49 31° N
CSL-04 Rocket 4.2 18:24:52 10° S 18:30:01 55° WSW 18:35:16 10° NNW
Cosmos 407 Rocket 3.9 18:27:39 10° SSW 18:31:32 51° S 18:31:32 51° S
Meteor 1-18 Rocket 4.1 18:30:22 10° SSW 18:36:05 90° W 18:36:16 85° N
Cosmos 1867 3.9 18:34:30 10° NW 18:39:54 61° SW 18:40:36 56° SSW
NOSS 3-1 (C) 3.8 18:35:02 10° NW 18:42:10 75° NE 18:43:13 66° E
COSMOS 2428 4.3 18:39:18 10° W 18:44:12 29° NW 18:46:23 23° N
Lacrosse 4 Rocket 4.2 18:43:32 10° NNW 18:43:38 11° NNW 18:43:38 11° NNW
CZ-4 R/B 3.6 18:44:50 10° SSW 18:47:59 23° W 18:51:07 10° NW
COSMO-SKYMED 1 3.9 18:48:38 38° WNW 18:48:44 38° WNW 18:52:45 10° SW
Lacrosse 5 rocket 3.1 18:44:43 10° W 18:47:04 31° W 18:47:04 31° W
USA 229 DEB 3.7 18:43:10 10° NW 18:50:21 81° NE 18:50:47 78° E
USA 229 3.6 18:43:17 10° NW 18:50:27 81° NE 18:50:51 78° E
S3M 4.1 18:45:35 10° NNW 18:51:49 73° W 18:57:57 10° S
NOSS 3-1 (A) 3.9 18:48:35 10° NW 18:55:38 68° NE 18:55:38 68° NE
NOSS 3-4 (A) 4.4 18:50:05 10° W 18:55:54 38° NNW 18:56:36 37° N
NOSS 3-4 (C) 4.4 18:50:11 10° W 18:56:00 38° NNW 18:56:42 37° N
SL-4 R/B 4.2 18:53:07 10° W 18:54:45 24° W 18:54:45 24° W
Ariane Rocket 4.2 19:06:32 36° NW 19:06:32 36° NW 19:09:42 10° NNW
Cosmos 2360 Rocket 4.5 19:16:28 10° NW 19:19:33 15° NNW 19:19:55 14° N
SeaSat 1 4.3 19:25:00 27° NW 19:25:00 27° NW 19:27:17 10° NW
Cosmos 2369 Rocket 3.3 19:18:01 10° NW 19:21:43 39° WNW 19:21:43 39° WNW
SL-16 R/B 3.4 19:22:21 10° SW 19:25:57 37° WSW 19:25:57 37° WSW
ATLAS 2AS CENTAUR R/B 3.9 19:27:34 10° WNW 19:34:49 39° N 19:34:49 39° N
Cosmos 2333 Rocket 4.3 19:32:42 10° WNW 19:36:43 19° NNW 19:36:58 19° NNW
Cosmos 2237 Rocket 3.9 19:35:05 10° W 19:39:33 27° NW 19:39:33 27° NW
USA 215 4.1 19:49:48 45° WNW 19:49:48 45° WNW 19:54:18 10° WNW
Cosmos 2344 4.3 19:39:22 10° NW 19:48:41 75° SW 19:50:07 68° S
Cosmos 1943 Rocket 4.3 19:59:56 10° NW 20:02:45 22° WNW 20:02:45 22° WNW
